Dayton, OR

10:09 PM PST on February 11, 2016 (GMT -0800)
McMinnville Municipal

Weather History for KMMV - November, 2012

Change the Weather History Date:

Monday, November 12, 2012

  Actual Average Record
Temperature  
Mean Temperature 50 °F 46 °F  
Max Temperature 54 °F 53 °F 65 °F (1900)
Min Temperature 45 °F 39 °F 19 °F (1955)
Degree Days  
Heating Degree Days 15 19  
Month to date heating degree days 179 218  
Since 1 July heating degree days 607 841  
Cooling Degree Days 0 0  
Month to date cooling degree days 0 0  
Year to date cooling degree days 300 215  
Moisture  
Dew Point 45 °F    
Average Humidity 86    
Maximum Humidity 100    
Minimum Humidity 71    
Precipitation  
Precipitation 0.23 in 0.21 in 2.04 in (1965)
Month to date precipitation 1.31 2.39  
Year to date precipitation 35.79 29.25  
Snow  
Snow 0.00 in - - ()
Month to date snowfall 0.0  
Snow Depth 0.00 in    
Sea Level Pressure  
Sea Level Pressure 30.21 in    
Wind  
Wind Speed 9 mph (South)    
Max Wind Speed 24 mph    
Max Gust Speed 31 mph    
Visibility 7 miles    
Events Rain    
T = Trace of Precipitation, MM = Missing Value Source: NWS Daily Summary

Daily Weather History Graph

Daily Weather History Graph

Search for Another Location

Airport or City:

Trip Planner

Search our weather history database for the weather conditions in past years. The results will help you decide how hot, cold, wet, or windy it might be!

Date:

Astronomy

Nov. 12, 2012 Rise Set
Actual Time 7:07 AM PST 4:45 PM PST
Civil Twilight 6:35 AM PST 5:17 PM PST
Nautical Twilight 6:00 AM PST 5:52 PM PST
Astronomical Twilight 5:25 AM PST 6:27 PM PST
Moon 5:37 AM PST 3:55 PM PST
Length of Visible Light 10h 41m
Length of Day
9h 38m
Waning Crescent, 2% of the Moon is Illuminated
Nov 12
Waning Crescent
Nov 13
New
Nov 20
First Quarter
Nov 28
Full
Dec 6
Last Quarter

Hourly Weather History & Observations

Time (PST) Temp. Windchill Dew Point Humidity Pressure Visibility Wind Dir Wind Speed Gust Speed Precip Events Conditions
12:45 AM 48.2 °F - 42.8 °F 82% 30.17 in 10.0 mi SSE 9.2 mph 19.6 mph 0.02 in Rain Light Rain
12:53 AM 48.0 °F - 43.0 °F 83% 30.17 in 10.0 mi South 15.0 mph 19.6 mph 0.02 in Rain Light Rain
1:27 AM 48.2 °F - 42.8 °F 82% 30.16 in 9.0 mi South 17.3 mph 26.5 mph 0.01 in Rain Light Rain
1:49 AM 48.2 °F - 42.8 °F 82% 30.16 in 9.0 mi South 18.4 mph 26.5 mph 0.02 in Rain Light Rain
1:53 AM 48.9 °F - 43.0 °F 80% 30.16 in 8.0 mi South 16.1 mph 26.5 mph 0.03 in Rain Rain
2:29 AM 48.2 °F - 42.8 °F 82% 30.17 in 9.0 mi South 16.1 mph 23.0 mph 0.02 in Rain Rain
2:53 AM 48.9 °F - 43.0 °F 80% 30.16 in 10.0 mi South 19.6 mph 27.6 mph 0.03 in Rain Light Rain
3:53 AM 48.9 °F - 43.0 °F 80% 30.15 in 10.0 mi South 20.7 mph 28.8 mph 0.04 in   Overcast
4:08 AM 48.2 °F - 42.8 °F 82% 30.15 in 10.0 mi South 19.6 mph 27.6 mph 0.00 in Rain Light Rain
4:53 AM 48.9 °F - 44.1 °F 83% 30.15 in 10.0 mi South 13.8 mph 24.2 mph 0.03 in Rain Light Rain
5:31 AM 48.2 °F - 44.6 °F 87% 30.15 in 10.0 mi South 16.1 mph 20.7 mph 0.02 in Rain Light Rain
5:53 AM 48.9 °F - 44.1 °F 83% 30.15 in 10.0 mi South 16.1 mph 23.0 mph 0.03 in   Overcast
6:53 AM 50.0 °F - 44.1 °F 80% 30.16 in 10.0 mi South 13.8 mph 24.2 mph 0.03 in   Overcast
7:53 AM 50.0 °F - 44.1 °F 80% 30.17 in 10.0 mi South 10.4 mph - N/A   Overcast
8:53 AM 50.0 °F - 44.1 °F 80% 30.18 in 10.0 mi South 12.7 mph - N/A   Overcast
9:46 AM 51.8 °F - 46.4 °F 82% 30.18 in 10.0 mi South 10.4 mph - N/A   Overcast
9:53 AM 52.0 °F - 46.0 °F 80% 30.18 in 10.0 mi South 8.1 mph - N/A   Overcast
10:05 AM 53.6 °F - 46.4 °F 77% 30.18 in 10.0 mi SSW 9.2 mph - N/A   Overcast
10:37 AM 53.6 °F - 46.4 °F 77% 30.19 in 10.0 mi SSW 10.4 mph - N/A   Overcast
10:53 AM 53.1 °F - 45.0 °F 74% 30.19 in 10.0 mi South 13.8 mph 18.4 mph N/A   Overcast
11:53 AM 52.0 °F - 46.9 °F 83% 30.20 in 10.0 mi South 16.1 mph - N/A   Overcast
12:15 PM 51.8 °F - 46.4 °F 82% 30.19 in 10.0 mi South 11.5 mph - N/A   Overcast
12:53 PM 54.0 °F - 48.0 °F 80% 30.19 in 10.0 mi South 12.7 mph - N/A   Overcast
1:53 PM 53.1 °F - 46.9 °F 80% 30.20 in 10.0 mi South 10.4 mph - N/A   Overcast
2:48 PM 51.8 °F - 46.4 °F 82% 30.20 in 4.0 mi SSW 6.9 mph - 0.01 in Rain Light Rain
2:53 PM 52.0 °F - 48.0 °F 86% 30.20 in 5.0 mi SSW 5.8 mph - 0.01 in Rain Light Rain
3:07 PM 51.8 °F - 48.2 °F 88% 30.20 in 1.8 mi SSW 6.9 mph - 0.00 in Rain Light Rain
3:10 PM 51.8 °F - 48.2 °F 88% 30.20 in 2.0 mi SSW 5.8 mph - 0.00 in Rain Light Rain
3:29 PM 51.8 °F - 48.2 °F 88% 30.20 in 7.0 mi SSW 4.6 mph - 0.00 in Rain Light Rain
3:53 PM 52.0 °F - 48.0 °F 86% 30.20 in 10.0 mi SSW 5.8 mph - 0.01 in   Overcast
4:04 PM 51.8 °F - 48.2 °F 88% 30.20 in 10.0 mi SW 3.5 mph - N/A   Overcast
4:53 PM 52.0 °F - 48.9 °F 89% 30.21 in 10.0 mi SW 3.5 mph - N/A   Overcast
5:20 PM 51.8 °F - 48.2 °F 88% 30.21 in 10.0 mi Variable 4.6 mph - N/A   Overcast
5:39 PM 51.8 °F - 48.2 °F 88% 30.22 in 10.0 mi Calm Calm - N/A   Overcast
5:53 PM 52.0 °F - 48.9 °F 89% 30.22 in 10.0 mi Calm Calm - N/A   Overcast
6:10 PM 51.8 °F - 48.2 °F 88% 30.23 in 10.0 mi Calm Calm - N/A   Overcast
6:53 PM 52.0 °F - 48.9 °F 89% 30.23 in 10.0 mi Calm Calm - N/A   Overcast
7:53 PM 48.0 °F - 46.0 °F 93% 30.24 in 10.0 mi Calm Calm - N/A   Scattered Clouds
8:27 PM 46.4 °F - 44.6 °F 93% 30.24 in 1.8 mi Calm Calm - N/A   Clear
8:37 PM 46.4 °F - 44.6 °F 93% 30.24 in 0.8 mi Calm Calm - N/A   Mist
8:44 PM 46.4 °F - 44.6 °F 93% 30.24 in 1.2 mi Calm Calm - N/A   Partly Cloudy
8:48 PM 46.4 °F - 44.6 °F 93% 30.24 in 3.0 mi Calm Calm - N/A   Partly Cloudy
8:53 PM 48.0 °F - 46.0 °F 93% 30.25 in 1.5 mi Calm Calm - N/A   Partly Cloudy
9:10 PM 46.4 °F 45.2 °F 44.6 °F 93% 30.25 in 3.0 mi SE 3.5 mph - N/A   Partly Cloudy
9:53 PM 45.0 °F - 44.1 °F 97% 30.26 in 4.0 mi Calm Calm - N/A   Partly Cloudy
9:55 PM 44.6 °F - 44.6 °F 100% 30.26 in 1.5 mi Calm Calm - N/A   Scattered Clouds
10:00 PM 46.4 °F - 44.6 °F 93% 30.26 in 0.8 mi Calm Calm - N/A   Mist
10:10 PM 46.4 °F - 44.6 °F 93% 30.26 in 1.8 mi Calm Calm - N/A   Mostly Cloudy
10:22 PM 48.2 °F - 46.4 °F 93% 30.26 in 3.0 mi Calm Calm - N/A   Overcast
10:48 PM 46.4 °F - 44.6 °F 93% 30.26 in 1.5 mi Calm Calm - N/A   Scattered Clouds
10:51 PM 46.4 °F - 44.6 °F 93% 30.26 in 0.8 mi Calm Calm - N/A   Scattered Clouds
10:53 PM 46.9 °F - 45.0 °F 93% 30.26 in 0.8 mi Calm Calm - N/A   Scattered Clouds
11:01 PM 46.4 °F - 44.6 °F 93% 30.26 in 2.0 mi Calm Calm - N/A   Mostly Cloudy
11:11 PM 48.2 °F - 46.4 °F 93% 30.26 in 9.0 mi Calm Calm - N/A   Mostly Cloudy
11:37 PM 46.4 °F 45.2 °F 44.6 °F 93% 30.26 in 1.8 mi SSE 3.5 mph - N/A   Partly Cloudy
11:43 PM 46.4 °F - 44.6 °F 93% 30.26 in 3.0 mi Calm Calm - N/A   Clear
11:51 PM 46.4 °F - 44.6 °F 93% 30.26 in 1.8 mi Calm Calm - N/A   Clear
11:53 PM 46.0 °F - 44.1 °F 93% 30.26 in 1.5 mi Calm Calm - N/A   Clear